Hagerstown, MD

6:24 PM EST on February 21, 2018 (GMT -0500)
Hagerstown Regional-Henson

Weather History for KHGR - November, 2010

Change the Weather History Date:

Saturday, November 27, 2010

  Actual Average Record
Temperature  
Mean Temperature 36 °F 40 °F  
Max Temperature 40 °F 48 °F 67 °F (2015)
Min Temperature 31 °F 33 °F 23 °F (1996)
Degree Days  
Heating Degree Days 29 25  
Month to date heating degree days 528 527  
Since 1 July heating degree days 788 929  
Cooling Degree Days 0 0  
Month to date cooling degree days 0 0  
Year to date cooling degree days 1713 969  
Moisture  
Dew Point 19 °F    
Average Humidity 52    
Maximum Humidity 56    
Minimum Humidity 47    
Precipitation  
Precipitation 0.00 in 0.13 in 0.24 in (2012)
Month to date precipitation 2.38 2.84  
Year to date precipitation 24.42 36.02  
Sea Level Pressure  
Sea Level Pressure 29.97 in    
Wind  
Wind Speed 15 mph (West)    
Max Wind Speed 28 mph    
Max Gust Speed 37 mph    
Visibility 10 miles    
Events      
T = Trace of Precipitation, MM = Missing Value Source: NWS Daily Summary

Daily Weather History Graph

Daily Weather History Graph

Search for Another Location

Airport or City:

Trip Planner

Search our weather history database for the weather conditions in past years. The results will help you decide how hot, cold, wet, or windy it might be!

Date:

Astronomy

Nov. 27, 2010 Rise Set
Actual Time 7:08 AM EST 4:48 PM EST
Civil Twilight 6:38 AM EST 5:17 PM EST
Nautical Twilight 6:05 AM EST 5:51 PM EST
Astronomical Twilight 5:33 AM EST 6:23 PM EST
Moon 11:05 PM EST (11/27) 11:47 AM EST (11/27)
Length of Visible Light 10h 38m
Length of Day
9h 39m
Waning Gibbous, 63% of the Moon is Illuminated
Nov 27
Waning Gibbous
Nov 28
Last Quarter
Dec 5
New
Dec 13
First Quarter
Dec 21
Full

Hourly Weather History & Observations

Time (EST) Temp. Windchill Dew Point Humidity Pressure Visibility Wind Dir Wind Speed Gust Speed Precip Events Conditions
12:53 AM 33.1 °F 22.2 °F 16.0 °F 50% 29.80 in 10.0 mi West 17.3 mph 24.2 mph N/A   Clear
1:53 AM 32.0 °F 23.6 °F 16.0 °F 52% 29.82 in 10.0 mi West 10.4 mph 18.4 mph N/A   Partly Cloudy
2:53 AM 32.0 °F 20.8 °F 16.0 °F 52% 29.81 in 10.0 mi West 17.3 mph 24.2 mph N/A   Clear
3:53 AM 32.0 °F 24.8 °F 16.0 °F 52% 29.80 in 10.0 mi West 8.1 mph - N/A   Clear
4:53 AM 32.0 °F 23.6 °F 17.1 °F 54% 29.79 in 10.0 mi West 10.4 mph - N/A   Mostly Cloudy
5:53 AM 33.1 °F 26.9 °F 18.0 °F 54% 29.81 in 10.0 mi SW 6.9 mph - N/A   Overcast
6:53 AM 34.0 °F 27.2 °F 19.0 °F 54% 29.84 in 10.0 mi WSW 8.1 mph - N/A   Overcast
7:53 AM 35.1 °F 24.1 °F 19.0 °F 52% 29.86 in 10.0 mi West 19.6 mph - N/A   Overcast
8:53 AM 35.1 °F 23.8 °F 21.0 °F 57% 29.88 in 10.0 mi West 20.7 mph 31.1 mph N/A   Overcast
9:53 AM 37.0 °F 26.2 °F 21.9 °F 54% 29.90 in 10.0 mi West 21.9 mph 27.6 mph N/A   Overcast
10:53 AM 37.0 °F 27.7 °F 21.9 °F 54% 29.93 in 10.0 mi West 16.1 mph 25.3 mph N/A   Overcast
11:53 AM 37.9 °F 27.9 °F 21.9 °F 53% 29.93 in 10.0 mi West 19.6 mph 29.9 mph N/A   Overcast
12:53 PM 37.0 °F 25.6 °F 21.9 °F 54% 29.95 in 10.0 mi West 24.2 mph 29.9 mph N/A   Mostly Cloudy
1:53 PM 37.9 °F 27.9 °F 19.9 °F 48% 29.98 in 10.0 mi West 19.6 mph 28.8 mph N/A   Scattered Clouds
2:53 PM 37.9 °F 27.9 °F 19.0 °F 47% 30.01 in 10.0 mi WNW 19.6 mph 27.6 mph N/A   Overcast
3:53 PM 37.0 °F 27.4 °F 19.0 °F 48% 30.05 in 10.0 mi West 17.3 mph - N/A   Overcast
4:53 PM 36.0 °F 27.5 °F 19.9 °F 52% 30.08 in 10.0 mi West 12.7 mph - N/A   Overcast
5:53 PM 33.1 °F 26.9 °F 19.9 °F 59% 30.10 in 10.0 mi WNW 6.9 mph - N/A   Partly Cloudy
6:53 PM 33.1 °F 26.1 °F 21.0 °F 61% 30.13 in 10.0 mi West 8.1 mph - N/A   Overcast
7:53 PM 35.1 °F 26.9 °F 19.9 °F 54% 30.14 in 10.0 mi WNW 11.5 mph - N/A   Overcast
8:53 PM 35.1 °F 27.4 °F 19.9 °F 54% 30.16 in 10.0 mi West 10.4 mph - N/A   Overcast
9:53 PM 35.1 °F 29.3 °F 19.9 °F 54% 30.18 in 10.0 mi West 6.9 mph - N/A   Overcast
10:53 PM 34.0 °F 28.0 °F 21.0 °F 59% 30.19 in 10.0 mi West 6.9 mph - N/A   Overcast
11:53 PM 33.1 °F 30.0 °F 19.9 °F 59% 30.20 in 10.0 mi Variable 3.5 mph - N/A   Mostly Cloudy